Hourly Data Report for November 28, 2019

OTTAWA INTL A
ONTARIO
Current Station Operator: NAVCAN

45°19'00.000" N
75°40'00.000" W
114.90 m
6106001
71628
YOW

Download Data

Hourly Data (November 2019)
Hourly Data Report for November 28, 2019
TIME Temp Definition
°C
Dew Point Definition
°C
Rel Hum Definition
%
Wind Dir Definition
10's deg

Wind Spd Definition
km/h
Visibility Definition
km
Stn Press Definition
kPa
Hmdx Definition


Wind Chill Definition


Weather Definition


00:00 1.0 0.5 97 2 9 16.1 98.68     Snow
01:00 1.1 0.7 97 34 10 16.1 98.75     Rain
02:00 0.7 0.3 97 33 15 11.3 98.91     Snow
03:00 1.4 0.8 96 34 14 24.1 99.04     Rain
04:00 1.5 0.6 94 35 16 24.1 99.21     Cloudy
05:00 1.1 -0.4 90 35 25 24.1 99.40     Snow
06:00 0.6 -1.5 86 35 30 16.1 99.63     Snow
07:00 -0.1 -2.6 83 35 26 4.8 99.86   -6 Snow
08:00 -0.4 -3.6 79 34 30 24.1 100.09   -7 LegendNANA
09:00 -0.6 -4.2 77 34 21 24.1 100.30   -6 LegendNANA
10:00 -1.6 -4.3 82 32 31 24.1 100.50   -9 Cloudy
11:00 -2.0 -5.3 79 33 34 24.1 100.55   -10 LegendNANA
12:00 -2.2 -5.4 79 32 26 24.1 100.71   -9 LegendNANA
13:00 -2.6 -6.2 77 33 31 24.1 100.85   -10 Cloudy
14:00 -2.9 -6.9 74 34 32 24.1 100.92   -10 LegendNANA
15:00 -2.7 -6.5 75 34 24 24.1 101.01   -9 LegendNANA
16:00 -2.6 -6.3 76 33 21 24.1 101.08   -9 Cloudy
17:00 -2.5 -6.0 77 32 27 24.1 101.18   -9 LegendNANA
18:00 -2.4 -5.7 78 33 22 24.1 101.26   -9 Snow
19:00 -2.4 -5.9 77 33 23 24.1 101.29   -9 Cloudy
20:00 -2.2 -5.6 78 33 24 24.1 101.37   -9 LegendNANA
21:00 -2.4 -5.1 82 34 27 24.1 101.44   -9 Snow
22:00 -2.6 -6.2 76 33 28 24.1 101.52   -10 Cloudy
23:00 -2.9 -5.5 82 33 18 24.1 101.49   -9 LegendNANA

Notes on Data Quality.

Legend

  • E = Estimated
  • M = Missing
  • NA = Not Available*
  • [empty] = Indicates an unobserved value
Date modified: